Location: Maccacari
(45.1333°N, 11.1333°E)
Time: 14:08:44
(UTC+00:00)

S-56A Canister/Altair - Pass Details

Date: 22 January 2021
Orbit: 631 x 2501 km, 38.9° (Epoch: 01 March)

Event Time Altitude Azimuth Distance (km) Brightness Sun altitude
Rises 06:11:35 0° 268° (W) 3,085 - -6.3°
Exits shadow 06:12:32 - 265° (W) 2,739 9.8 -6.1°
Reaches altitude 10° 06:13:51 10° 259° (WSW) 2,288 9.5 -5.9°
Maximum altitude 06:18:37 35° 194° (SSW) 1,456 9.1 -5.1°
Drops below altitude 10° 06:25:06 10° 132° (SE) 3,151 12.2 -4.1°
Sets 06:28:48 0° 124° (SE) 4,443 13.8 -3.5°
